timestamp,gas_concentrations,,corrected_fluxes_and_quality_flags,,,,,,,,,,storage_terms,,,turbulence,,,footprint,,
ISOdate,CO2_1_1_1,H2O_1_1_1,Tau_1_1_1,QcTau_1_1_1,H_1_1_1,QcH_1_1_1,LE_1_1_1, QcLE_1_1_1,Fc_1_1_1, QcFc_1_1_1,E_1_1_1, QcE_1_1_1,Sa_1_1_1,Sw_1_1_1,Sc_1_1_1,ustar_1_1_1,MO_length_1_1_1,ZL_1_1_1,Fetchmax_1_1_1,Fetch70_1_1_1,Fetch90_1_1_1
yyyymmddHHMM,[µmol+1mol_a-1],[mmol+1mol_a-1],[kg+1m-1s-2],[#],[W+1m-2],[#],[W+1m-2],[#],[µmol+1s-1m-2],[#],[mmol+1s-1m-2],[#],[W+1m-2],[W+1m-2],[µmol+1s-1m-2],[m+1s-1],[m],[#],[m],[m],[m]
201801090030,410.74211530911526,2.9195308985102391,0.27257885993888159,0,-34.193822082874320,0,-0.16497291643074205,0,4.24792150150647974E-002,0,-3.64650067047950612E-003,0,-9999.,-9999.,-9999.,0.47166861275464089,256.92156613246141,8.40723506599818093E-002,109.11137842596702,199.49039905197009,298.87296969005530
201801090100,410.75242654676794,2.9117517472694372,0.23973653150080315,0,-38.875095108797609,0,0.94485604487421704,0,0.16113422306804148,0,2.08780036030964365E-002,0,-8.2241918736495361,-0.29038978405871946,8.50517467976420749E-003,0.44196112825439421,185.97460938243455,0.11614488704521048,101.83711010989734,186.19071656130794,278.94762179958616
201801090130,410.82803279404305,2.8978166544390365,0.37827593139270399,0,-37.280369807691912,0,1.0352475949197213,0,-1.52418889116683332E-002,0,2.28688941977945176E-002,0,-7.1842034058280717,-0.52099258295803907,6.24425013292848607E-002,0.55481103406855747,383.68353178226783,5.62963958856006821E-002,110.56512245924532,202.14830679268184,302.85499981984503
201801090200,410.78506012505966,2.8739044045422419,0.30441391590713984,0,-37.618767635788821,0,0.50913086231911764,0,-0.15168349695225358,0,1.12438657612984102E-002,0,-6.7451026157349148,-0.89556767795944914,-3.55432001075985868E-002,0.49733637648873319,273.96516539194238,7.88421402739228755E-002,101.83945485165226,186.19500349705299,278.95404441051420
201801090230,410.78528331331472,2.8572472489501468,0.20546150845913702,0,-28.329987051776513,0,0.14731890181041468,0,-7.66532169037170696E-003,0,3.25266375437973775E-003,0,-6.2160355510006076,-0.62490121640451624,1.84868348645583465E-004,0.40828961032024808,201.35144045114802,0.10727512031502255,107.72818384131351,196.96147820393702,295.08418542998766
201801090300,410.74009839936303,2.8300338099753595,0.13895853561389854,0,-22.706851905800420,0,-1.3280459619893024,0,-4.88791556027927676E-002,0,-2.93099736784595728E-002,0,-10.531869179929400,-1.0234626521337258,-3.75045841371408062E-002,0.33542361497577033,139.33278744076125,0.15502453081392245,103.22681965398402,188.73154883302462,282.75425154287751
201801090330,410.69945468733084,2.8099854464768872,7.96995034390791668E-002,0,-20.006256552214651,0,-1.4235979361305446,0,0.11784340184640274,0,-3.14066982926677479E-002,0,-9.9059660858699647,-0.75571916995526411,-3.37994637046569665E-002,0.25378409812504449,68.512191814300337,0.31527235413145110,101.30885432529418,185.22489650851207,277.50064736504157
201801090400,410.50494901738318,2.7861421303668390,0.10508586063205165,0,-25.819211753654727,0,-1.6619429747645511,0,0.13046451383079161,0,-3.66520997405889518E-002,0,-9.0260075683991783,-0.90070544865536095,-0.16204332306948882,0.29114917614082320,80.180143070661501,0.26939338310938482,109.39708383474873,200.01275966028959,299.65556106788341
201801090430,410.35637388021678,2.7562182735604051,7.33354666285850471E-002,0,-18.575832236234589,0,7.94713511047669824E-002,2,0.11376110614739199,0,1.75224090970004616E-003,2,-5.9114215551226064,-1.1320714993261340,-0.12393262482738504,0.24306793788542286,64.863050284316031,0.33300931586350185,108.14581010353308,197.72503220633919,296.22812846334239
201801090500,410.43405406877713,2.7018748408752096,6.69816416695105665E-002,0,-16.004784073933518,0,0.64406523358907197,1,-6.84251681465751771E-002,0,1.41973327641734901E-002,1,-6.3263838834739756,-2.0597111706736402,6.49002593923513199E-002,0.23211101304406243,65.582734837789772,0.32935497510777412,103.35618021285401,188.96806119207312,283.10859015492679
201801090530,410.38188155625795,2.6588613855051118,0.10235427346641644,0,-26.501929851183203,0,-1.0454358493151505,0,0.17466787646971560,0,-2.30396660806128535E-002,0,-5.8470628968413330,-1.6327133480727296,-4.36441616185977502E-002,0.28674323914147060,74.689853574089241,0.28919590769546355,105.18724019582629,192.31582282757546,288.12414712695113
201801090600,410.29388137322502,2.6416563261233033,9.70308802023674699E-002,0,-31.947424732516531,0,-1.4167592190277272,0,5.52915877812125700E-002,0,-3.12177165383131019E-002,0,-4.3979010839578372,-0.65385328467744963,-7.36907191522409438E-002,0.27904314643520001,57.114036858053460,0.37819074238584938,108.50700201872270,198.38540622355879,297.21748907703864
201801090630,410.20865058889547,2.6394540786757852,9.07438442259634742E-002,0,-31.063838780266682,0,-1.4414863167929366,0,0.13635319202244855,0,-3.17617710965568956E-002,0,-0.65059911242000101,-8.37291513730905601E-002,-7.14004989234841708E-002,0.26979693369775720,53.102438177601258,0.40676098388851262,114.26471730952177,208.91234610424664,312.98876327790992
201801090700,410.18891932620710,2.6147003741278847,8.75001129438547354E-002,0,-26.590843273942788,0,-1.4242935343225949,1,1.49964682095349300E-002,0,-3.13759372596986164E-002,1,-5.7970695864432509,-0.94244371429745799,-1.65488303112672937E-002,0.26477493103202743,58.646141796707305,0.36831067378438759,119.15159596095958,217.84711886908116,326.37468100839806
201801090730,410.10245011896399,2.5864705174254179,6.79487623263137358E-002,0,-27.997970930199759,0,-1.1412076911247622,0,-3.45121416918887647E-002,0,-2.51354611621017639E-002,0,-4.4911692955733562,-1.0761699892270005,-7.26032143111799283E-002,0.23319543177485808,38.062833785197206,0.56748270824754854,110.48025229962455,201.99313707294598,302.62252730405567
201801090800,410.09063090374116,2.5639937564956208,2.45369189336687547E-002,0,-11.878330160691585,0,-0.51909767312575394,0,3.02583336867967567E-003,0,-1.14317172573861169E-002,0,-3.5817264047299742,-0.85780359263487294,-9.93356568424712087E-003,0.14006394421951612,19.445505819361113,1.1107965100344031,387.54785785731832,3777.0000000000000,-9999.
201801090830,410.00348428104343,2.5476519291010016,1.89010004543546314E-002,0,-10.147819257695071,0,-0.54266184148546592,0,4.03013683797470712E-002,0,-1.19486462711459861E-002,0,-4.3780951400767618,-0.62448503212678130,-7.33265742489692535E-002,0.12285992254396599,15.367224292795242,1.4055889071734919,524.18764120222079,5128.0000000000000,-9999.
201801090900,409.97178070800243,2.5462849770635350,1.27466458115990337E-002,0,3.5407781268480893,2,0.48018610769180675,1,-6.10585578282881458E-002,2,1.05723429309861616E-002,1,-1.6668445042769069,-5.22573429039846007E-002,-2.66847972911006710E-002,0.10087725506892353,-24.380459759728620,-0.88595540087716673,303.43316364871544,907.00000000000000,1983.0000000000000
201801090930,410.05269084682971,2.5373326784533834,2.95505015311310322E-003,2,-3.4119541484824802,0,5.06059718271496331E-002,1,4.67363533749071136E-002,0,1.11427227765096941E-003,1,1.6745015605012743,-0.34211162574835940,6.80809763709107341E-002,4.85784242728485721E-002,2.8253533936507305,7.6450613394206037,2190.5605945280358,-9999.,-9999.
201801091000,409.75169403728540,2.5348795189280358,7.67969938220117014E-004,2,-1.1294491879531872,1,-0.17971195252353267,1,3.31378372173913027E-002,1,-3.95658384314185371E-003,1,-2.7710479922202316,-9.38249739328427951E-002,-0.25345330837316282,2.47557610671953962E-002,1.1297919374241641,19.118564475903668,9470.0397901002470,-9999.,-9999.
201801091030,409.73396375418599,2.5204689051066382,2.46491038510860848E-003,1,-1.1970572403185085,0,2.94215542900795358E-002,2,7.17899509531256114E-002,1,6.47656983337418037E-004,2,-3.8450534524578930,-0.55169729083458385,-1.49421634216448922E-002,4.43325472296324935E-002,6.1229747463708044,3.5276970581664906,1804.4879608766175,-9999.,-9999.
201801091100,409.83725154229467,2.5298405031092219,1.51384476710767239E-003,1,0.66915604718306176,2,5.97592393447670608E-002,2,-2.84329905028850374E-002,1,1.31555455717848784E-003,2,1.4640815792029844,0.35868607858257062,8.70269272285163903E-002,3.47464252141305788E-002,-5.2737149394498353,-4.0957845177451624,277.44299527035855,781.00000000000000,1643.0000000000000
201801091130,409.66739312913205,2.5387214959008113,7.47844827186862609E-003,1,-7.9325816888512444,1,-0.98503805752584406,2,-0.15375508981205777,1,-2.16829532279444910E-002,2,-2.3074135731627874,0.34006708282809045,-0.14317116664948559,7.72136389597106315E-002,4.8818918953144781,4.4245141971970252,319.69653472415257,2354.0000000000000,9767.0000000000000
201801091200,408.50566536560444,2.5517902019231493,2.21348611262489701E-003,1,7.36231915635708750E-002,2,-9.17797513325789155E-002,1,-6.34783385034647651E-002,2,-2.02012769368485612E-003,1,-2.0138775368753468,0.50071449807494428,-0.97970176827004152,4.19969003142653674E-002,-84.648626465408640,-0.25517248066425230,102.72366309674099,363.00000000000000,888.00000000000000
201801091230,410.15093938526263,2.5763613352565868,4.49185970510065143E-003,1,2.3578051079373572,1,3.84147730049874056E-002,1,3.03429137386354159E-002,2,8.45840562925838911E-004,1,9.5105180070278887,0.94004330726134000,1.3859614477416387,5.98593855399796732E-002,-7.6557739778977894,-2.8213999084036669,136.36270051108713,395.00000000000000,846.00000000000000
201801091300,409.52838535546135,2.5449680012002305,1.89162134785670795E-002,1,7.1645100813077098,1,1.9529621047613213,2,1.4620990066899431,1,4.29788308639390271E-002,2,-13.817574447034895,-1.2043246479086613,-0.52558621139317263,0.12270342455275821,-21.702087603471682,-0.99529595468708043,169.54070029735956,514.00000000000000,1133.0000000000000
201801091330,409.35501223467577,2.5435274943067498,7.46333486772945802E-003,1,-9.9105417606535333,1,-2.1524526806637425,1,0.51331767811718465,1,-4.73624015735330459E-002,1,-3.6578854919021833,-5.53100166376990846E-002,-0.14647729725827327,7.70451149934437279E-002,3.8842777972788944,5.5608793004279304,1577.6550473232128,-9999.,-9999.
201801091400,409.66693255634618,2.2513670134392840,8.85294214636956900E-002,0,-47.117008375142937,0,-5.3981872027985691,0,4.2642054255852280,0,-0.11857726233648333,0,-45.383416966094707,-11.320743626219324,0.26549150701660251,0.26435604143941860,33.012278035491697,0.65430201383793363,116.77639793521129,213.50449934745652,319.86864563612011
201801091430,409.95843683252258,2.1288671148796063,3.56794518583793477E-002,0,-26.321097829763065,0,-7.5244595452523750,0,0.59203691065244235,0,-0.16515360183899602,0,-20.809402538565600,-4.7669335796517132,0.24897803765239068,0.16752895266841014,15.042718483125414,1.4359106716136714,420.47591489811475,3960.0000000000000,-9999.
201801091500,410.86118718990156,2.2946917561887137,0.14594553232014582,0,-38.073296368994313,0,-8.1088121122897565,0,-6.81755890242645712E-002,0,-0.17817847495627587,0,29.497651262273717,6.4165155685157300,0.76756622205297909,0.33960476742598406,86.632764273695472,0.24932830183924382,117.13734955718485,214.16443403203954,320.85734804946992
201801091530,412.60475640137639,2.3939824071759355,0.24088119346920317,0,-12.808555979870206,1,-3.1278801029759640,0,-0.98955082710801157,1,-6.87887628056785688E-002,0,22.352115386163820,3.8248609693836757,1.4771135702201048,0.43709388180092462,548.98470699558686,3.93453583037125243E-002,113.98611402366645,208.40297044174247,312.22562571508018
201801091600,413.14139404809157,2.5423839641113806,0.34953702200033254,1,40.452257352108589,1,9.8104722697671605,1,-1.7454877801250483,0,0.21594666016078101,1,23.440817016958402,5.6902160646580802,0.45292679444868500,0.52752856069175402,-305.56495164005480,-7.06887353541909846E-002,112.66748983535342,205.99210487189148,308.61370977421745
201801091630,414.07178700655237,2.6752171201135155,0.50594264093637675,0,22.088811483037968,2,5.7399085145129334,1,-2.5873835648176913,0,0.12648608552087290,1,28.826024217750135,5.0648350447008408,0.78174121766159421,0.63611565900014766,-981.17017263610683,-2.20145297955474419E-002,114.45145331345621,209.25375907583262,313.50026212293471
201801091700,414.46498216109364,2.7185731792931533,0.86629805226963164,0,78.248166610748584,0,18.898589517494511,0,-2.3003896519415790,0,0.41675521940095650,0,18.728299388714706,1.6469289059569867,0.32937062538681350,0.83364782593523279,-623.36318827127900,-3.46507467980287295E-002,121.01435792780842,221.25284184193904,331.47707462571952
201801091730,413.85836133882822,2.7714406119439818,0.80398848013946855,0,24.501732774907612,2,16.163137197913109,0,1.7377445011205257,2,0.35681829850073671,0,27.867862522381447,1.9960481482765351,-0.50561687985569237,0.80512708999430926,-1792.4850065056785,-1.20503100006999000E-002,127.22749634173164,232.61244044145315,348.49582331767692
201801091800,413.24773661662135,2.7445391060898032,0.57725863531361643,0,75.261851823852382,0,19.009402917786531,0,-1.0425109704360129,0,0.42012370742013888,0,28.724754553388653,-1.0093910718164336,-0.50636766453415194,0.68395711107576418,-357.57787249891680,-6.04064223802479108E-002,107.85842877320631,197.19960747892756,295.44094647675865
201801091830,413.32922435093809,2.7198598193210897,0.59414610000373724,0,101.46236019892814,0,13.673917789053665,0,-2.3991169255345808,0,0.30236293890431348,0,13.327952286110664,-0.92302076390849885,6.73917451335470513E-002,0.69482719443262486,-277.96049198118624,-7.77088853385034251E-002,111.84584268232089,204.48987182522907,306.36309092761542
201801091900,412.70043457160699,2.7023742198343230,0.41708249837550204,0,51.937860985512543,0,14.203884486259128,0,-0.47159214636134905,0,0.31399004306591499,0,-7.4575457130074581,-0.65475911152573363,-0.52049341893547818,0.58189158110566419,-318.87665426063597,-6.77377904948321952E-002,102.29231699556054,187.02297992909018,280.19450398276592
201801091930,412.66738496197195,2.7300939584449440,0.55683123034805793,0,49.032649912452371,0,12.000299078808977,1,-0.27781630508838528,0,0.26530220584001690,1,2.3536435016177388,1.0374635654103854,-2.73463172725620686E-002,0.67248683846086377,-521.35675740360512,-4.14303635529144898E-002,108.49969615814706,198.37204878034180,297.19747719305479
201801092000,412.94429926422566,2.7843972082432646,0.48624904080977654,0,29.756284519776990,0,7.4625538669318265,0,-1.6376065162282238,0,0.16501517820080641,0,5.1439563452965071,2.0299406719153055,0.22889659120164449,0.62874584306026271,-702.02659309042883,-3.07680652166087976E-002,119.89553202148703,219.20727125396252,328.41243713316578
201801092030,413.21189469837111,2.8309748827132362,0.57889683263246083,0,27.693085388840750,0,11.666055405890360,0,-1.3747943724507277,0,0.25797478796398593,0,0.98653217389976922,1.7401312906916537,0.22107322342953861,0.68622796104949690,-980.44342485692619,-2.20308479330686910E-002,111.53426798952810,203.92021391515237,305.50963957305822
201801092100,413.28728551976354,2.8772753858671933,0.75651239544237225,0,21.573379008009226,0,11.746970030587553,0,-1.4008606991053516,0,0.25984743022706136,0,8.1609856928487350,1.7266647554775305,6.21918325858642138E-002,0.78505654000935299,-1884.1278983228688,-1.14641898881848482E-002,117.01483296365780,213.94043462440871,320.52175611880261
201801092130,413.17884294907208,2.8982289797451517,0.71811374215054191,0,11.493878210631845,0,14.297132551277910,0,-1.2092465791381874,0,0.31633379811990775,0,6.0882292219998977,0.78039044487410503,-8.93613821720347368E-002,0.76528580157535075,-3275.6136013485980,-6.59418436628395315E-003,113.91061435929740,208.26493297589292,312.01882043751795
201801092200,412.83446993649432,2.9315754485983656,0.98616555422163288,0,-7.4431365592839835,0,19.613598630192673,0,-0.57548555442230565,0,0.43403846678160324,0,4.3403326802344075,1.2406310103421176,-0.28352595839296363,0.89721777854271512,8150.0680483666010,2.65028461993381450E-003,115.00984553884206,210.27467815390403,315.02978493769905
201801092230,412.62369812630578,2.9633097462076581,1.0453984824392142,0,-15.813561476211930,0,15.765004111866832,0,-0.52611348711560479,2,0.34890486882891703,0,2.4520405821671987,1.1796225203870401,-0.17339622243558947,0.92413368954374153,4190.6192943443348,5.15436943392862980E-003,115.15197989975374,210.53454509707996,315.41911297253364
201801092300,412.55040529232048,2.9723354302991645,1.0603844250608554,0,-22.487310976990447,0,20.053423979292713,0,-1.4467403084443058,0,0.44381770629322964,0,0.18361924404017449,0.33534479551983604,-6.02683144067539048E-002,0.93094938669653771,3011.6960401357346,7.17203851655179216E-003,114.94882302274827,210.16310953235131,314.86263481214837
201801092330,412.82668403413390,2.9783433388144940,0.82426710873125986,0,-14.414734763352506,0,13.766293088884684,0,-1.3168435360992214,1,0.30465991223426725,0,-1.0378106760818961,0.22322188622504818,0.22717431819905051,0.82079889372910830,3219.6840713425786,6.70873275805380486E-003,102.78378125456778,187.92153333904145,281.54070072874214
201801100000,413.16008050299632,2.9902821588247273,1.0947366527221916,0,-24.288426392769082,0,12.458834457053719,0,-0.76551596306880121,1,0.27569406689954484,0,-2.8182043050483974,0.44365556507211612,0.27415459483593957,0.94590430788672553,2923.7025180011283,7.38789253250274249E-003,116.16516625220092,212.38697288856679,318.19438736072027
